Alyeska Resort
Hourly Weather - Mid Mountian Site
ALY_MID_HR 10/20/2014
CLICK TO VIEW GRAPH!!

        DATE  TIME   Air   H2o   H2o   New  Snow  BATT   Rel
                    Temp  Inch Since  Snow Depth  Volt  Hum%
                      F   1HR  0600   1HR         AVG   AVG

  10/20/2014 22:00    33  0.06  0.50  11.3  5.37 13.42    94
  10/20/2014 21:00    33  0.01  0.44  11.3  5.76 13.42    96
  10/20/2014 20:00    33  0.01  0.43  11.4  5.65 13.42    96
  10/20/2014 19:00    33  0.01  0.42  11.7  5.89 13.42    97
  10/20/2014 18:00    34  0.01  0.41  11.9  6.46 13.41    96
  10/20/2014 17:00    34  0.01  0.40  12.2  6.71 13.41    94
  10/20/2014 16:00    34  0.06  0.39  12.3  6.90 13.42    96
  10/20/2014 15:00    34  0.01  0.33  12.5  7.40 13.42    95
  10/20/2014 14:00    34  0.00  0.32  12.6  6.15 13.43    94
  10/20/2014 13:00    33  0.01  0.32  12.9  4.49 13.45    96
  10/20/2014 12:00    32  0.03  0.31  12.5  4.33 13.46    96
  10/20/2014 11:00    31  0.03  0.28  12.9  5.38 13.46    97
  10/20/2014 10:00    30  0.06  0.25  12.5  4.13 13.46    96
  10/20/2014 09:00    30  0.05  0.19  12.1  3.98 13.46    96
  10/20/2014 08:00    30  0.08  0.14  11.7  4.51 13.46    96
  10/20/2014 07:00    30  0.06  0.06  11.3  2.64 13.46    97
  10/20/2014 06:00    30  0.03  0.99  11.0  3.02 13.46    97
  10/20/2014 05:00    30  0.09  0.96  10.5  2.59 13.46    97
  10/20/2014 04:00    30  0.13  0.87  10.1  2.63 13.45    97
  10/20/2014 03:00    30  0.11  0.74   9.0  1.02 13.45    97
  10/20/2014 02:00    30  0.14  0.63   7.8  0.16 13.45    97
  10/20/2014 01:00    30  0.11  0.49   6.1  0.05 13.45    97
  10/19/2014 24:00    30  0.08  0.38   4.5  0.02 13.46    97
  10/19/2014 23:00    30  0.10  0.30   3.5  0.10 13.46    97


CLICK TO VIEW GRAPH!!